Flag for Canada Weather past 2 weeks in Dieppe, New Brunswick, Canada

Now
10 °F

Fog.


Feels Like: 1 °F
Forecast: 3 / 26 °F
Wind: 6 mph from Southeast

Location: Moncton

Current Time: Jan 30, 2015 at 1:31:52 AM

Latest Report: Jan 30, 2015 at 1:00 AM


Visibility: 12 mi

Pressure: 30.13 "Hg

Humidity: 85%

Dew point: 7 °F

Location of DieppeLocation

Historic Weather in Dieppe — Graph

°F

Dieppe temperature yesterday

Maximum temperature yesterday: 21 °F (at 3:00 PM)
Minimum temperature yesterday: 5 °F (at 6:00 AM)
Average temperature yesterday: 11 °F

Past Weeks' High & Low Weather Summary

 TemperatureHumidityPressure
High46 °F (Jan 19, 11:00 AM)100% (Jan 19, 4:00 PM)30.37 "Hg (Jan 19, 4:00 PM)
Low-6 °F (Jan 17, 6:00 AM)46% (Jan 17, 5:00 PM)28.64 "Hg (Jan 25, 2:00 AM)
Average19 °F75%29.83 "Hg
* Reported Midnight between Jan 14 and Jan 15 — Midnight between Jan 29 and Jan 30, Dieppe, Weather by CustomWeather, © 2014

Note: Actual official high and low records may vary slightly from our data, if they occured in-between our weather recording intervals... More about our weather records

Advertising

Dieppe weather history for previous 24 hours

 ConditionsComfort  
Time TempWeatherWind HumidityBarometerVisibility
12:00 AM
Jan 30
9 °FPassing clouds.3 mph85%30.15 "Hg15 mi
11:00 PM
Jan 29
9 °FPassing clouds.6 mph85%30.16 "Hg15 mi
10:00 PM9 °FPassing clouds.5 mph78%30.17 "Hg15 mi
9:00 PM7 °FPassing clouds.6 mph85%30.20 "Hg15 mi
8:00 PM9 °FPassing clouds.5 mph78%30.21 "Hg15 mi
7:00 PM7 °FPassing clouds.5 mph78%30.22 "Hg15 mi
6:00 PM12 °FPassing clouds.6 mph73%30.22 "Hg15 mi
5:00 PM16 °FPassing clouds.6 mph79%30.21 "Hg15 mi
4:00 PM21 °FPassing clouds.2 mph68%30.22 "Hg15 mi
3:00 PM21 °FPassing clouds.No wind63%30.21 "Hg15 mi
2:00 PM19 °FPassing clouds.No wind63%30.22 "Hg15 mi
1:00 PM18 °FSunny.5 mph62%30.22 "Hg15 mi
12:00 PM16 °FSunny.5 mph62%30.25 "Hg15 mi
11:00 AM10 °FSunny.7 mph67%30.26 "Hg15 mi
10:00 AM9 °FSunny.8 mph72%30.25 "Hg15 mi
9:00 AM5 °FSunny.13 mph78%30.22 "Hg15 mi
8:00 AM5 °FSunny.13 mph78%30.21 "Hg15 mi
7:00 AM5 °FClear.12 mph85%30.19 "Hg15 mi
6:00 AM5 °FClear.10 mph85%30.16 "Hg15 mi
5:00 AM7 °FClear.10 mph85%30.14 "Hg15 mi
4:00 AM9 °FClear.8 mph85%30.12 "Hg15 mi
3:00 AM10 °FPassing clouds.7 mph79%30.09 "Hg15 mi
2:00 AM12 °FPassing clouds.8 mph85%30.06 "Hg15 mi
1:00 AM14 °FPassing clouds.6 mph79%30.02 "Hg15 mi
Weather by CustomWeather, © 2014

See weather overviewHow to use our weather pages